User: anonymous   Login
Location: Kapuskasing
(49.3803°N, 82.4001°W)
Time: 00:50:40
(UTC-04:00)
Language:

Tiangong - Orbit

View from above orbital plane
View from above orbital plane
View from above satellite
View from above satellite

Ground track
Ground track

The orbit is defined by the following mean orbital elements,

1 48274U          26110.92198984 +.00000000 +00000-0 +33518-3 0 00001
2 48274  41.4677 310.7964 0006515 246.3399 113.6757 15.62720710    00
Epoch (UTC): 20 April 2026 22:07:39
Eccentricity: 0.0006515
inclination: 41.4677°
perigee height: 375 km
apogee height: 384 km
right ascension of ascending node: 310.7964°
argument of perigee: 246.3399°
revolutions per day: 15.62720710
mean anomaly at epoch: 113.6757°

The dashed part of the orbit path shows where the satellite is in the earth's shadow,  

DLR